Regional Weather Roundup
Issued by NWS Wakefield, VA

Home | Current Version | Previous Version | Text Only | Print | Product List | Glossary Off
Versions: 1 2 3 4 5 6 7 8 9 10 11 12 13 14 15 16 17 18 19 20 21 22 23 24 25 26 27 28 29 30 31 32 33 34 35 36 37 38 39 40 41 42 43 44 45 46 47 48 49 50

000
ASUS41 KAKQ 220515
RWRAKQ

REGIONAL WEATHER ROUNDUP
NATIONAL WEATHER SERVICE WAKEFIELD VA
100 AM EDT THU JUN 22 2017

Note: "fair" indicates few or no clouds below 12,000 feet with no
significant weather and/or obstructions to visibility. * = Denotes
station may not report precipitation (e.g., rain,snow,etc.),
thunder or fog.

VAZ042-051-052>054-056-220600-
NORTHERN VIRGINIA

CITY           SKY/WX    TMP DP  RH WIND       PRES   REMARKS
WASH NATIONAL  CLOUDY    80  70  71 VRB3      29.99R
DULLES         CLOUDY    74  66  76 CALM      29.99R
FORT BELVOIR   CLOUDY    76  69  78 CALM      29.98S
QUANTICO       CLOUDY    80  70  71 W7        29.99R
FREDERICKSBRG* CLOUDY    76  70  81 SW7       29.98S
STAFFORD*      CLOUDY    76  70  80 SW3       30.03S
WARRENTON      CLOUDY    76  67  74 CALM      29.99S
CULPEPER*      CLOUDY    76  71  86 CALM      30.00S
MANASSAS*      NOT AVBL
LEESBURG*      CLOUDY    75  68  78 NE3       30.00F
WINCHESTER     CLOUDY    70  63  78 CALM      30.00S
FRONT ROYAL*   CLOUDY    72  64  78 CALM      30.00S
LURAY*         PTCLDY    70  66  88 CALM      30.01S
$$

VAZ048-049-060>072-079>083-220600-
CENTRAL AND SOUTH CENTRAL VIRGINIA

CITY           SKY/WX    TMP DP  RH WIND       PRES   REMARKS
RICHMOND       CLOUDY    73  70  90 S6        30.02S
CHESTERFIELD*  NOT AVBL
PETERSBURG*    CLEAR     72  69  90 CALM      30.04S
HANOVER        CLOUDY    76  67  73 SW7       30.03R
TAPPAHANNOCK*  CLOUDY    74  70  87 S6        30.02S
QUINTON*       FAIR      73  73 100 CALM      30.01F
CHARLOTTSVILLE PTCLDY    75  70  84 SW3       30.01S
GORDONSVILLE*  CLOUDY    75  71  87 SW6       30.00S
ORANGE*        CLOUDY    73  68  83 SW5       30.01R
LOUISA*        CLOUDY    77  72  83 SW3       30.01S
BUMPASS*       MOCLDY    73  71  94 SW6       30.01S
FARMVILLE*     CLEAR     73  67  82 SW3       30.03R
CREWE*         FAIR      73  69  87 CALM      30.04R
FORT PICKETT*  FAIR      72  68  87 SW6       30.05R
CHASE CITY*    FAIR      72  72  99 CALM      30.06S
CLARKSVILLE*   FAIR      70  70 100 SW3       30.06S
SOUTH HILL*    CLOUDY    71  71 100 S6        30.12R
LAWRENCEVILLE* FAIR      71  70  96 CALM      30.05S
EMPORIA*         N/A     72  70  94 CALM      30.06S
$$

VAZ088>098-220600-
SOUTHEAST VIRGINIA

CITY           SKY/WX    TMP DP  RH WIND       PRES   REMARKS
NORFOLK        CLEAR     76  71  85 SW13      30.03S
VIRGINIA BEACH PTCLDY    74  69  85 SW10      30.03S
NORFOLK NAVAL  MOCLDY    76  71  85 SW7       30.04S
WEST POINT*    CLOUDY    75  71  86 SW6       30.03S
SALUDA*        FAIR      74  73  94 SW6       30.01S
NEWPORT NEWS   PTCLDY    76  71  85 SW10      30.03S
LANGLEY AFB    CLEAR     76  72  88 SW6       30.02S
FORT EUSTIS    PTCLDY    75  72  89 SW5       30.01R
WILLIAMSBURG*  CLOUDY    77  72  83 CALM      30.03F
HR EXEC AP*    FAIR      72  70  94 SW6       30.02S
FRANKLIN*      CLEAR     73  70  88 SW6       30.05S
US460-WAKEFLD  CLEAR     73  72  96 S3        30.04R
$$

VAZ020-022-025-037-045-220600-
WEST CENTRAL AND SOUTHWEST VIRGINIA

CITY           SKY/WX    TMP DP  RH WIND       PRES   REMARKS
STAUNTON*      CLOUDY    70  64  81 S3        30.07R
WAYNESBORO*    PTCLDY    70  66  87 SW3       30.07S
HOT SPRINGS VA CLOUDY    64  50  59 W14       30.20S
LYNCHBURG      PTCLDY    70  66  87 SW3       30.06S
DANVILLE       CLOUDY    71  70  96 S5        30.07S
SOUTH BOSTON*  FAIR      73  71  95 SW5       30.06S
MARTINSVILLE   MOCLDY    67  66  96 CALM      30.11S
ROANOKE        PTCLDY    71  61  70 W8        30.10R
BLACKSBURG     PTCLDY    65  60  84 CALM      30.17R
DUBLIN*        PTCLDY    68  58  70 SW6       30.16R
MARION*        CLOUDY    64  60  88 CALM      30.20R
HILLSVILLE*    CLOUDY    66  60  79 CALM      30.17S
RICHLANDS*     NOT AVBL
WISE*          CLOUDY    68  61  77 SW8       30.18S
ABINGDON*      CLOUDY    67  64  89 CALM      30.16S
$$

MDZ021>025-VAZ099-100-220600-
SOUTHERN MARYLAND AND THE DELMARVA PENINSULA

CITY           SKY/WX    TMP DP  RH WIND       PRES   REMARKS
PATUXENT RIVER CLEAR     77  70  79 SW10      29.98S
BAY BRIDGE APT MOCLDY    73  68  83 SE3       29.99S
LEONARDTOWN    CLEAR     75  68  78 SW5       30.01S
DOVER          MOCLDY    70  70 100 SW5       29.98S
GEORGETOWN     MOCLDY    73  70  90 CALM      30.00R
EASTON         MOCLDY    74  66  77 CALM      30.03S
CAMBRIDGE      CLEAR     77  70  78 CALM      29.99R
SALISBURY      PTCLDY    76  73  91 SW8       29.99S
OCEAN CITY     MOCLDY    68  66  93 CALM      30.01F
WALLOPS ISLAND CLEAR     75  72  90 SW7       30.00S
ACCOMACK*      PTCLDY    77  72  84 SW8       30.01S
$$

NCZ012>017-030>032-220600-
NORTH CENTRAL AND EASTERN NORTH CAROLINA

CITY           SKY/WX    TMP DP  RH WIND       PRES   REMARKS
ROANOKE RAPIDS FAIR      72  72 100 CALM      30.06S
RALEIGH        CLOUDY    72  71  97 W5        30.08S
ELIZABETH CITY PTCLDY    75  74  96 SW10      30.06S
AHOSKIE*         N/A     71  70  98 CALM      30.07R
EDENTON*       MOCLDY    77  73  87 SW9       30.08S
CURRITUCK*     PTCLDY   N/A N/A N/A SW7       30.06S
KILL DEVIL HLS PTCLDY    75  72  88 SW3       30.05F
MANTEO         PTCLDY    74  72  91 SW9       30.07F
CAPE HATTERAS  CLOUDY    78  74  87 SW8       30.08F
TARBORO*       NOT AVBL
GOLDSBORO      MOCLDY    75  75 100 SW6       30.07S
WASHINGTON     CLOUDY    73  72  96 SW10      30.08S
GREENVILLE     MOCLDY    73  73 100 SW8       30.09S
NEW BERN       CLOUDY    73  73 100 SW5       30.09F
WILMINGTON     PTCLDY    77  75  93 SW7       30.09F
$$

VAZ048-220600-
ELSEWHERE

CITY           SKY/WX    TMP DP  RH WIND       PRES   REMARKS
HARRISBURG PA  PTCLDY    69  66  90 CALM      29.98R
BALTIMORE      CLOUDY    71  66  84 CALM      29.98S
ANNAPOLIS      CLOUDY    75  73  93 CALM      29.98R
ANDREWS AFB    CLOUDY    75  68  80 S3        29.98S
PHILADELPHIA   PTCLDY    71  66  84 SW6       29.99R
HENDERSON NC   CLOUDY    69  66  89 SW8       30.07S
GREENSBORO     MOCLDY    72  71  97 SW10      30.09S
ROCKY MOUNT    CLOUDY    74  74 100 S5        30.08R
$$

VAZ100-220600-
MARINE

STATION/POSITION TIME  TEMP    WIND        PRES    WAVE   SWELL
                       AIR SEA DIR/SP/G            HT/PER HT/PER
                 (UTC) (F)     (DEG/KT/KT) (MB)    (FT/S) (FT/S)
BRANDYWINE LGT   0442   73     190/  5/  7 1015.9R
CAPE MAY NJ      0448   70 73   CALM  /  1 1015.5R
LEWES DE         0442   73 71  220/  4/  5 1015.5R
15NM E FENWICK I 0450   70 67  150/ 10/ 12 1015.9F   2/ 5   2/ 7
OCEAN-CITY-INLET 0448   69 63  140/  3/  5 1016.0F
WACHAPREAGUE VA  0448   75 81  220/  4/  7 1016.0F
THOMAS POINT MD  0500   76 77  100/  4/  5   N/A
GOOSES REEF MD   0500   80 78  290/ 12/ 16 1015.9    1/ 2
COVE POINT MD    0448   78     250/ 12/ 17 1015.8R
SOLOMONS ISLAND  0442   78 76  230/ 11/ 15   N/A
BISHOPS HEAD MD  0448   79 80  230/ 16/ 17 1015.7S
PINEY POINT MD   0448          250/  9/ 14   N/A
POTOMAC MD       0500   78 78  250/ 16/ 17 1014.6    2/ 2
CAMBRIDGE MD     0448   78 81              1016.1R
LEWISETTA VA     0448   77 78  240/ 10/ 13 1015.6S
RAPPAHANNOCK LGT 0448          210/ 15/ 16 1016.9S
YORK RVR RNG VA  0448   77     230/ 10/ 11 1017.0R
YORKTOWN VA      0448   76 76  230/  9/ 10 1016.2S
JAMESTOWN VA     0500   76 82  220/  8/ 10   N/A
DOMINION TERM VA 0448   77     230/ 11/ 12 1017.0F
KIPTOPEKE VA     0442      75  220/  9/ 10   N/A
CHES BAY BRIDGE  0448   76 74  240/ 12/ 14 1016.7R
CAPE HENRY VA    0448   76     210/  7/ 11   N/A
WILLOUBY STN VA  0448   76     230/ 12/ 13 1016.7R
S CRANEY ISL VA  0448   76     220/  6/  8 1016.8R
CAPE HENRY BUOY  0500      74                N/A     2/13
1ST LANDING BUOY 0500   76 73              1016.9
CAPE CHARLES BUO 0451      73                N/A     1/13
64NM E OF VA BCH 0450   73 70  240/ 14/ 14 1017.8S   3/ 5   2/13
DUCK PIER NC     0448   77 64  240/ 14/ 18 1017.7R
44100 DUCK FRF   0405      68                N/A     2/13   2/13
OREGON INLET NC  0442   77 78  220/ 18/ 19 1017.9F
HATTERAS NC      0442   77 78  240/  7/ 11 1018.5F
DIAMOND SHLS NC  0450   79 80  230/ 16/ 17 1018.6R   3/ 3   2/ 7
CAPE LOOKOUT NC  0500   78     230/  9/ 12 1018.7S
$$



USA.gov is the U.S. government's official web portal to all federal, state and local government web resources and services.